AA9VI-10 Weather Reports


time (UTC)temp
C
wind
direction
speed
KPH
gust
KPH
rain 1hr
cm
rain 24hr
cm
rain mn
cm
humidity
%
barometer
mb
20260504050016 14 0 4.8 12.9 0.00 0.00 0.00 59 1005.4
20260504045017 14 0 4.8 9.7 0.00 0.00 0.00 59 1005.4
20260504044017 14 0 4.8 9.7 0.00 0.00 0.00 59 1005.3
20260504043017 15 0 3.2 12.9 0.00 0.00 0.00 59 1005.3
20260504042017 15 0 3.2 8.0 0.00 0.00 0.00 58 1005.4
20260504041017 15 0 1.6 4.8 0.00 0.00 0.00 58 1005.3
20260504040017 15 0 3.2 8.0 0.00 0.00 0.00 58 1005.5
20260504035017 15 0 3.2 8.0 0.00 0.00 0.00 59 1005.5
20260504034017 15 0 1.6 4.8 0.00 0.00 0.00 59 1005.5
20260504033016 15 0 1.6 6.4 0.00 0.00 0.00 58 1005.7
20260504032017 15 0 1.6 6.4 0.00 0.00 0.00 58 1005.8
20260504031017 15 0 3.2 8.0 0.00 0.00 0.00 57 1006.0
20260504030017 15 0 1.6 4.8 0.00 0.00 0.00 57 1006.0
20260504025017 15 0 1.6 4.8 0.00 0.00 0.00 56 1006.0
20260504024017 16 0 3.2 8.0 0.00 0.00 0.00 56 1005.9
20260504023017 16 0 1.6 6.4 0.00 0.00 0.00 55 1006.0
20260504022017 16 0 1.6 4.8 0.00 0.00 0.00 54 1005.9
20260504021017 16 0 3.2 4.8 0.00 0.00 0.00 53 1005.9
20260504020017 16 0 1.6 4.8 0.00 0.00 0.00 52 1005.8
20260504015017 17 0 1.6 4.8 0.00 0.00 0.00 51 1005.7
20260504014017 17 0 1.6 4.8 0.00 0.00 0.00 50 1005.6
20260504013017 17 0 3.2 6.4 0.00 0.00 0.00 50 1005.5
20260504012017 17 0 1.6 4.8 0.00 0.00 0.00 49 1005.3
20260504011017 17 0 1.6 4.8 0.00 0.00 0.00 48 1005.2
20260504010017 18 0 1.6 4.8 0.00 0.00 0.00 46 1005.1
20260504005017 18 0 3.2 6.4 0.00 0.00 0.00 46 1005.2
20260504004017 18 0 3.2 9.7 0.00 0.00 0.00 45 1005.4
20260504003017 19 225 1.6 6.4 0.00 0.00 0.00 44 1005.4
20260504002017 19 225 1.6 6.4 0.00 0.00 0.00 43 1005.4
20260504001017 19 0 4.8 8.0 0.00 0.00 0.00 42 1005.3
20260504000017 20 248 3.2 12.9 0.00 0.00 0.00 42 1005.4
20260503235017 20 225 6.4 17.7 0.00 0.00 0.00 41 1005.4
20260503234017 20 225 3.2 9.7 0.00 0.00 0.00 42 1005.4
20260503233017 20 270 3.2 12.9 0.00 0.00 0.00 41 1005.4
20260503232017 20 225 4.8 11.3 0.00 0.00 0.00 40 1005.5
20260503231017 20 225 4.8 17.7 0.00 0.00 0.00 40 1005.6
20260503230017 20 203 3.2 9.7 0.00 0.00 0.00 40 1005.6
20260503225022 20 180 3.2 12.9 0.00 0.00 0.00 42 1005.7
20260503224017 20 225 8.0 17.7 0.00 0.00 0.00 40 1005.7
20260503223017 20 158 9.7 25.7 0.00 0.00 0.00 40 1005.7
20260503222017 20 180 8.0 20.9 0.00 0.00 0.00 40 1005.8
20260503221017 20 180 8.0 24.1 0.00 0.00 0.00 40 1005.9
20260503220017 19 180 11.3 27.4 0.00 0.00 0.00 39 1006.1
20260503215017 19 180 8.0 19.3 0.00 0.00 0.00 40 1006.0
20260503214017 19 180 9.7 20.9 0.00 0.00 0.00 40 1006.2
20260503213016 19 180 11.3 29.0 0.00 0.00 0.00 40 1006.4
20260503212017 18 180 8.0 29.0 0.00 0.00 0.00 40 1006.5
20260503211017 18 225 9.7 22.5 0.00 0.00 0.00 41 1006.6
20260503210017 18 180 11.3 25.7 0.00 0.00 0.00 39 1006.7
20260503205017 18 180 11.3 25.7 0.00 0.00 0.00 38 1006.9
20260503204017 18 248 11.3 25.7 0.00 0.00 0.00 39 1007.0
20260503203017 18 158 11.3 35.4 0.00 0.00 0.00 38 1007.3
20260503202017 18 203 14.5 38.6 0.00 0.00 0.00 40 1007.7
20260503201017 17 180 9.7 17.7 0.00 0.00 0.00 45 1007.8
20260503200016 17 0 9.7 25.7 0.00 0.00 0.00 47 1007.9
20260503195017 17 0 11.3 20.9 0.00 0.00 0.00 47 1008.3
20260503194017 16 0 9.7 30.6 0.00 0.00 0.00 49 1008.4
20260503193017 16 180 11.3 24.1 0.00 0.00 0.00 49 1008.5
20260503192017 16 180 11.3 29.0 0.00 0.00 0.00 50 1008.5
20260503191017 16 0 9.7 29.0 0.00 0.00 0.00 49 1008.5
20260503190017 15 0 9.7 24.1 0.00 0.00 0.00 51 1008.6
20260503185017 15 0 12.9 29.0 0.00 0.00 0.00 50 1008.7
20260503184016 15 0 11.3 24.1 0.00 0.00 0.00 50 1009.0
20260503183017 15 0 6.4 22.5 0.00 0.00 0.00 52 1009.2
20260503182017 13 0 11.3 24.1 0.00 0.00 0.00 53 1009.4
20260503181017 14 0 6.4 19.3 0.00 0.00 0.00 54 1009.5
20260503180017 13 0 8.0 19.3 0.00 0.00 0.00 57 1009.8
20260503175017 13 0 9.7 20.9 0.00 0.00 0.00 58 1010.1
20260503174016 13 0 9.7 22.5 0.00 0.00 0.00 58 1010.6
20260503173017 13 0 9.7 24.1 0.00 0.00 0.00 58 1010.8
20260503172017 13 0 12.9 33.8 0.00 0.00 0.00 58 1011.2
20260503171017 12 180 11.3 22.5 0.00 0.00 0.00 60 1011.3
20260503131017 9 203 6.4 12.9 0.00 0.00 0.00 58 1013.8
20260503081016 7 225 3.2 6.4 0.00 0.00 0.00 55 1014.3
20260503072017 7 225 3.2 11.3 0.00 0.00 0.00 54 1014.5